Flag for Sweden Weather past 2 weeks in Kiruna, Sweden

Now
57 °F

Broken clouds.


Feels Like: 55 °F
Forecast: 49 / 64 °F
Wind: 9 mph from Southwest

Location: Kiruna Airport

Current Time: Jul 31, 2014 at 6:28:43 AM

Latest Report: Jul 31, 2014 at 5:50 AM


Visibility: N/A

Pressure: 29.45 "Hg

Humidity: 94%

Dew point: 55 °F

Location of KirunaLocation

Historic Weather in Kiruna — Graph

°F

Kiruna temperature yesterday

Maximum temperature yesterday: 57 °F (at 2:50 PM)
Minimum temperature yesterday: 48 °F (at 12:50 AM)
Average temperature yesterday: 54 °F

Past Weeks' High & Low Weather Summary

 TemperatureHumidityPressure
High81 °F (Jul 25, 4:50 PM)100% (Jul 17, 12:20 AM)30.30 "Hg (Jul 17, 12:20 AM)
Low48 °F (Jul 30, 12:50 AM)34% (Jul 21, 3:20 PM)29.45 "Hg (Jul 31, 4:20 AM)
Average63 °F74%30.07 "Hg
* Reported Jul 16 5:20 AM — Jul 31 5:20 AM, Kiruna, Weather by CustomWeather, © 2014

Note: Actual official high and low records may vary slightly from our data, if they occured in-between our weather recording intervals... More about our weather records

Advertising

Kiruna weather history for previous 24 hours

 ConditionsComfort  
Time TempWeatherWind HumidityBarometerVisibility
5:20 AM
Jul 31
57 °FBroken clouds.7 mph94%29.45 "HgN/A
4:50 AM55 °FPassing clouds.6 mph100%29.45 "HgN/A
4:20 AM57 °FScattered clouds.8 mph94%29.45 "HgN/A
3:50 AM57 °FCloudy.10 mph94%29.47 "HgN/A
3:20 AM57 °FLow clouds.10 mph94%29.47 "HgN/A
2:50 AM57 °FPassing clouds.2 mph94%29.47 "HgN/A
2:20 AM57 °FPartly cloudy.3 mph94%29.47 "HgN/A
1:50 AM55 °FLight rain. Mostly cloudy.6 mph100%29.50 "HgN/A
1:20 AM55 °FRain. Mostly cloudy.5 mph100%29.53 "HgN/A
12:50 AM55 °FLight rain. Mostly cloudy.3 mph94%29.53 "Hg5 mi
12:20 AM55 °FHeavy rain. Mostly cloudy.5 mph94%29.56 "Hg2 mi
11:50 PM
Jul 30
55 °FPassing clouds.5 mph94%29.59 "HgN/A
11:20 PM57 °FPartly sunny.7 mph88%29.59 "HgN/A
10:50 PM55 °FPartly sunny.3 mph94%29.62 "HgN/A
10:20 PM55 °FBroken clouds.9 mph88%29.62 "HgN/A
9:50 PM57 °FOvercast.10 mph88%29.65 "HgN/A
9:20 PM57 °FMore clouds than sun.12 mph88%29.65 "HgN/A
8:50 PM57 °FCloudy.12 mph88%29.65 "HgN/A
8:20 PM57 °FMostly cloudy.13 mph88%29.68 "HgN/A
7:50 PM57 °FMostly cloudy.14 mph88%29.68 "HgN/A
7:20 PM57 °FBroken clouds.15 mph88%29.68 "HgN/A
6:50 PM57 °FPartly sunny.20 mph88%29.68 "HgN/A
6:20 PM57 °FOvercast.16 mph88%29.68 "HgN/A
5:50 PM57 °FPartly sunny.15 mph88%29.71 "HgN/A
5:20 PM57 °FPartly sunny.12 mph88%29.71 "HgN/A
4:50 PM55 °FPartly sunny.8 mph94%29.74 "HgN/A
4:20 PM55 °FDrizzle. Partly sunny.8 mph94%29.74 "HgN/A
3:50 PM55 °FLight rain. Partly sunny.12 mph94%29.74 "HgN/A
3:20 PM57 °FLight rain. Partly sunny.9 mph88%29.77 "HgN/A
2:50 PM57 °FDrizzle. Partly sunny.8 mph82%29.77 "HgN/A
2:20 PM55 °FPartly sunny.10 mph82%29.77 "HgN/A
1:50 PM55 °FPartly sunny.10 mph82%29.77 "HgN/A
1:20 PM55 °FPartly sunny.10 mph82%29.80 "HgN/A
12:50 PM55 °FPartly sunny.12 mph82%29.80 "HgN/A
12:20 PM54 °FPartly sunny.12 mph82%29.80 "HgN/A
11:50 AM54 °FPartly sunny.12 mph82%29.80 "HgN/A
11:20 AM54 °FPartly sunny.13 mph82%29.80 "HgN/A
10:50 AM54 °FPartly sunny.9 mph82%29.80 "HgN/A
10:20 AM54 °FPartly sunny.10 mph82%29.83 "HgN/A
9:50 AM54 °FPartly sunny.10 mph82%29.83 "HgN/A
9:20 AM54 °FPartly sunny.12 mph82%29.83 "HgN/A
8:50 AM54 °FPartly sunny.10 mph82%29.83 "HgN/A
8:20 AM54 °FOvercast.12 mph82%29.83 "HgN/A
7:50 AM54 °FMostly cloudy.10 mph82%29.83 "HgN/A
7:20 AM52 °FOvercast.10 mph88%29.83 "HgN/A
6:50 AM52 °FPartly sunny.12 mph88%29.83 "HgN/A
6:20 AM52 °FPartly sunny.8 mph88%29.86 "HgN/A
Weather by CustomWeather, © 2014

See weather overviewHow to use our weather pages